Location: Mahannah Oil Field
(37.4664°N, 96.6003°W)
Time: 03:33:41
(UTC+00:00)

Tiros 1 despin weight - Pass Details

Date: 27 January 2021
Orbit: 593 x 642 km, 48.2° (Epoch: 02 March)

Event Time Altitude Azimuth Distance (km) Brightness Sun altitude
Rises 20:47:28 0° 272° (W) 2,899 ? 26.7°
Reaches altitude 10° 20:50:05 10° 284° (WNW) 1,984 ? 26.4°
Maximum altitude 20:54:00 27° 343° (NNW) 1,176 ? 25.9°
Drops below altitude 10° 20:57:52 10° 43° (NE) 1,960 ? 25.5°
Sets 21:00:26 0° 55° (NE) 2,856 ? 25.2°
